Home   Weather   Gdynia   Past weeks

Flag for Poland Past Weather in Gdynia, Poland — Yesterday and Last 2 Weeks

Now
57 °F

Partly cloudy.


Feels Like: 55 °F
Forecast: 58 / 64 °F
Wind: 10 mph from West

Location: Gdansk-Rebiechowo

Current Time: Sep 29, 2016 at 7:05:42 AM

Latest Report: Sep 29, 2016 at 6:30 AM


Visibility: N/A

Pressure: 29.95 "Hg

Humidity: 88%

Dew Point: 54 °F

Location of GdyniaLocation

Past Weather in Gdynia — Graph

°F

Gdynia Temperature Yesterday

Maximum temperature yesterday: 59 °F (at 12:30 PM)
Minimum temperature yesterday: 45 °F (at 12:00 AM)
Average temperature yesterday: 54 °F

High & Low Weather Summary for the Past Weeks

 TemperatureHumidityPressure
High73 °F (Sep 15, 11:30 AM)100% (Sep 14, 6:30 AM)30.36 "Hg (Sep 14, 6:30 AM)
Low37 °F (Sep 27, 5:30 AM)42% (Sep 19, 12:00 PM)29.92 "Hg (Sep 28, 2:30 PM)
Average55 °F80%30.13 "Hg
* Reported Sep 14 6:00 AM — Sep 29 6:00 AM, Gdynia, Weather by CustomWeather, © 2016

Note: Actual official high and low records may vary slightly from our data, if they occured in-between our weather recording intervals... More about our weather records

Advertising

Gdynia Weather History for the Previous 24 Hours

Scroll right to see more
 ConditionsComfort  
Time TempWeatherWind HumidityBarometerVisibility
6:00 AM
Thu, Sep 29
57 °FPartly cloudy.10 mph88%29.92 "HgN/A
5:30 AM57 °FPassing clouds.8 mph88%29.95 "HgN/A
5:00 AM57 °FPassing clouds.10 mph88%29.95 "HgN/A
4:30 AM59 °FPartly cloudy.14 mph82%29.95 "HgN/A
4:00 AM57 °FPassing clouds.13 mph88%29.95 "HgN/A
3:30 AM57 °FPassing clouds.14 mph88%29.95 "HgN/A
3:00 AM59 °FPassing clouds.13 mph82%29.95 "HgN/A
2:30 AM59 °FPassing clouds.14 mph82%29.95 "HgN/A
2:00 AM57 °FPassing clouds.14 mph88%29.92 "HgN/A
1:30 AM59 °FPassing clouds.15 mph82%29.95 "HgN/A
1:00 AM59 °FPassing clouds.14 mph82%29.92 "HgN/A
12:30 AM59 °FSprinkles. Passing clouds.13 mph82%29.92 "HgN/A
12:00 AM59 °FPassing clouds.13 mph82%29.92 "HgN/A
11:30 PM
Wed, Sep 28
59 °FPassing clouds.13 mph77%29.95 "HgN/A
11:00 PM57 °FClear.12 mph82%29.92 "Hg10 mi
10:30 PM57 °FClear.10 mph82%29.95 "Hg10 mi
10:00 PM57 °FClear.12 mph88%29.95 "Hg10 mi
9:30 PM57 °FClear.12 mph88%29.95 "Hg10 mi
9:00 PM57 °FClear.10 mph88%29.92 "Hg10 mi
8:30 PM57 °FClear.10 mph88%29.92 "Hg10 mi
8:00 PM57 °FClear.9 mph88%29.95 "Hg10 mi
7:30 PM57 °FClear.12 mph88%29.92 "Hg10 mi
7:00 PM59 °FPassing clouds.12 mph82%29.92 "HgN/A
6:30 PM57 °FPartly cloudy.10 mph94%29.92 "HgN/A
6:00 PM57 °FSprinkles. Partly sunny.10 mph94%29.92 "Hg4 mi
5:30 PM59 °FSprinkles. Partly sunny.13 mph88%29.92 "Hg4 mi
5:00 PM59 °FPartly sunny.10 mph88%29.95 "HgN/A
4:30 PM57 °FPartly sunny.10 mph94%29.95 "HgN/A
4:00 PM57 °FPartly sunny.16 mph88%29.95 "HgN/A
3:30 PM57 °FPartly sunny.13 mph88%29.95 "HgN/A
3:00 PM55 °FPartly sunny.14 mph94%29.95 "HgN/A
2:30 PM57 °FPartly sunny.15 mph88%29.92 "HgN/A
2:00 PM55 °FLight rain. Partly sunny.14 mph94%29.95 "Hg5 mi
1:30 PM55 °FLight rain. Fog.14 mph88%29.98 "Hg2 mi
1:00 PM57 °FLight rain. Partly sunny.14 mph82%29.98 "Hg6 mi
12:30 PM59 °FLight rain. Scattered clouds.15 mph72%29.98 "HgN/A
12:00 PM57 °FPassing clouds.7 mph77%29.98 "HgN/A
11:30 AM57 °FPassing clouds.10 mph77%30.01 "HgN/A
11:00 AM57 °FSunny.9 mph72%30.04 "Hg10 mi
10:30 AM55 °FPassing clouds.8 mph77%30.04 "HgN/A
10:00 AM55 °FPassing clouds.8 mph72%30.04 "HgN/A
9:30 AM55 °FPassing clouds.7 mph67%30.07 "HgN/A
9:00 AM54 °FPassing clouds.5 mph72%30.07 "HgN/A
8:30 AM54 °FPassing clouds.7 mph72%30.09 "HgN/A
8:00 AM52 °FPassing clouds.8 mph77%30.09 "HgN/A
7:30 AM52 °FSunny.8 mph77%30.12 "Hg10 mi
7:00 AM50 °FPassing clouds.5 mph76%30.12 "HgN/A
Weather by CustomWeather, © 2016

See weather overviewHow to use our weather pages